Weather History for KCRQ - March, 2013

Change the Weather History Date:

Friday, March 1, 2013

  Actual Average Record
Temperature  
Mean Temperature 69 °F -  
Max Temperature 84 °F 59 °F 84 °F (2013)
Min Temperature 54 °F 47 °F 42 °F (2007)
Cooling Degree Days 4    
Growing Degree Days 19 (Base 50)    
Moisture  
Dew Point 25 °F    
Average Humidity 21    
Maximum Humidity 31    
Minimum Humidity 8    
Precipitation  
Precipitation 0.00 in - - ()
Sea Level Pressure  
Sea Level Pressure 30.20 in    
Wind  
Wind Speed 3 mph (NNW)    
Max Wind Speed 12 mph    
Max Gust Speed -    
Visibility 10 miles    
Events      
Averages and records for this station are not official NWS values.
T = Trace of Precipitation, MM = Missing Value Source: NWS Daily Summary

Daily Weather History Graph

Daily Weather History Graph

Search for Another Location

Airport or City:

Trip Planner

Search our weather history database for the weather conditions in past years. The results will help you decide how hot, cold, wet, or windy it might be!

Date:

Astronomy

Mar. 01, 2013 Rise Set
Actual Time 6:16 AM PST 5:46 PM PST
Civil Twilight 5:51 AM PST 6:11 PM PST
Nautical Twilight 5:23 AM PST 6:39 PM PST
Astronomical Twilight 4:54 AM PST 7:08 PM PST
Moon 10:07 PM PST (3/1) 8:22 AM PST (3/1)
Length of Visible Light 12h 19m
Length of Day
11h 29m
Waning Gibbous, 82% of the Moon is Illuminated
Mar 1
Waning Gibbous
Mar 4
Last Quarter
Mar 11
New
Mar 19
First Quarter
Mar 27
Full

Hourly Weather History & Observations

Time (PST) Temp. Dew Point Humidity Pressure Visibility Wind Dir Wind Speed Gust Speed Precip Events Conditions
12:53 AM 59.0 °F 21.0 °F 23% 30.28 in 10.0 mi ENE 4.6 mph - N/A   Clear
1:53 AM 54.0 °F 23.0 °F 30% 30.27 in 10.0 mi Calm Calm - N/A   Clear
2:53 AM 55.0 °F 23.0 °F 29% 30.25 in 10.0 mi Calm Calm - N/A   Clear
3:53 AM 54.0 °F 24.1 °F 31% 30.25 in 10.0 mi NE 3.5 mph - N/A   Clear
4:53 AM 59.0 °F 21.0 °F 23% 30.25 in 10.0 mi Calm Calm - N/A   Clear
5:53 AM 55.0 °F 23.0 °F 29% 30.24 in 10.0 mi Calm Calm - N/A   Clear
6:53 AM 59.0 °F 21.9 °F 24% 30.23 in 10.0 mi Calm Calm - N/A   Clear
7:53 AM 64.9 °F 24.1 °F 21% 30.24 in 10.0 mi North 4.6 mph - N/A   Clear
8:53 AM 72.0 °F 25.0 °F 17% 30.23 in 10.0 mi Calm Calm - N/A   Clear
9:53 AM 78.1 °F 24.1 °F 14% 30.22 in 10.0 mi Variable 4.6 mph - N/A   Clear
10:53 AM 84.9 °F 18.0 °F 8% 30.20 in 10.0 mi Variable 6.9 mph - N/A   Clear
11:53 AM 78.1 °F 28.0 °F 16% 30.19 in 10.0 mi West 11.5 mph - N/A   Clear
12:53 PM 75.0 °F 37.0 °F 25% 30.17 in 10.0 mi West 5.8 mph - N/A   Clear
1:53 PM 75.9 °F 28.0 °F 17% 30.16 in 10.0 mi West 8.1 mph - N/A   Clear
2:53 PM 77.0 °F 23.0 °F 13% 30.15 in 10.0 mi Variable 6.9 mph - N/A   Clear
3:53 PM 78.1 °F 26.1 °F 15% 30.14 in 10.0 mi Variable 5.8 mph - N/A   Clear
4:53 PM 77.0 °F 28.0 °F 17% 30.14 in 10.0 mi Calm Calm - N/A   Clear
5:53 PM 73.9 °F 26.1 °F 17% 30.15 in 10.0 mi Calm Calm - N/A   Clear
6:53 PM 71.1 °F 23.0 °F 16% 30.16 in 10.0 mi Calm Calm - N/A   Clear
7:53 PM 66.0 °F 27.0 °F 23% 30.17 in 10.0 mi Calm Calm - N/A   Clear
8:53 PM 66.9 °F 28.0 °F 23% 30.17 in 10.0 mi Calm Calm - N/A   Clear
9:53 PM 64.0 °F 28.0 °F 26% 30.18 in 10.0 mi East 3.5 mph - N/A   Clear
10:53 PM 60.8 °F 28.4 °F 29% 30.19 in 10.0 mi Calm Calm - N/A   Clear
11:53 PM 63.0 °F 26.1 °F 25% 30.19 in 10.0 mi Calm Calm - N/A   Clear